Lexington Weather

Lexington, Massachusetts, USA

37°F
1/27/2020 8:25am 
  • Lexington Conditions: Mostly cloudy
  • Temperature: 36.7°F / 2.6°CWarmer 0.4°F than last hour.
  • Dew Point: 31.6°FIncreased 0.3°Fsince last hour.
  • Relative Humidity: 82
  • Wind: Wind from SSW SSW 2 mph, 10-min avg: 3 mph, gust: 7 mph
  • Barometer: 29.57 in Steady
  • Visibility: 10 miles
  • Rain Today: 0.00 in
  •   

Regional Weather Roundup
for Boston / Norton, MA

        
000
ASUS41 KBOX 262010
RWRBOX

REGIONAL WEATHER ROUNDUP
NATIONAL WEATHER SERVICE BOSTON/NORTON MA
300 PM EST SUN JAN 26 2020

NOTE:  "FAIR" INDICATES FEW OR NO CLOUDS BELOW 12,000 FEET WITH NO 
SIGNIFICANT WEATHER AND/OR OBSTRUCTIONS TO VISIBILITY.

MAZALL-262100-
EASTERN MASSACHUSETTS
  
CITY           SKY/WX    TMP DP  RH WIND       PRES   REMARKS
BOSTON         FAIR      48  28  46 W17G23    29.63S                  
BEVERLY        CLOUDY    46  30  53 W10G22    29.61S                  
LAWRENCE       CLOUDY    46  30  53 SW14G24   29.63S                  
BEDFORD        PTSUNNY   48  29  47 W8G16     29.63S                  
BLUE HILL        N/A     44  29  55 W12G22    29.61S                  
NORWOOD        PTSUNNY   49  28  44 W13       29.64S                  
MARSHFIELD     FAIR      50  28  43 W9G17     29.63S                  
PLYMOUTH       PTSUNNY   47  30  51 W14       29.64S                  
TAUNTON        FAIR      47  27  45 W10G20    29.65S                  
NEW BEDFORD    PTSUNNY   47  33  58 SW9       29.65S                  
$$

MAZALL-262100-
CAPE COD AND THE ISLANDS
  
CITY           SKY/WX    TMP DP  RH WIND       PRES   REMARKS
FALMOUTH       PTSUNNY   41  34  75 W17G24    29.66S                  
HYANNIS        FAIR      46  35  65 SW14      29.64S                  
CHATHAM        FAIR      44  36  73 SW14G23   29.67R                  
PROVINCETOWN   FAIR      47  34  60 W12       29.64S                  
NANTUCKET      FAIR      45  37  73 SW16      29.69R                  
MARTHAS VNYRD  FAIR      46  33  60 SW13G22   29.67F                  
$$
 
MAZALL-262100-
CENTRAL AND WESTERN MASSACHUSETTS
  
CITY           SKY/WX    TMP DP  RH WIND       PRES   REMARKS
WORCESTER      PTSUNNY   37  32  82 W10       29.64S WCI  30          
FITCHBURG      PTSUNNY   42  30  62 W13G22    29.66R                  
ORANGE         FAIR      41  26  55 NW13G23   29.67S                  
SPRINGFIELD    PTSUNNY   42  29  61 W9        29.68R                  
WESTFIELD      FAIR      42  30  62 W5        29.69R                  
NORTH ADAMS    NOT AVBL                                               
PITTSFIELD     CLOUDY    36  29  75 W10       29.65S WCI  28          
$$
 
RIZALL-262100-
RHODE ISLAND
  
CITY           SKY/WX    TMP DP  RH WIND       PRES   REMARKS
PROVIDENCE     PTSUNNY   50  30  46 W18G24    29.66S                  
NEWPORT        PTSUNNY   45  36  70 VRB6      29.66S                  
BLOCK ISLAND   FAIR      44  33  65 W15G22    29.70F                  
SMITHFIELD     CLOUDY    44  31  60 W9        29.66R                  
WESTERLY       FAIR      46  33  60 W16G23    29.69F                  
$$
 
CTZALL-262100-
CONNECTICUT
  
CITY           SKY/WX    TMP DP  RH WIND       PRES   REMARKS
BRADLEY INTL   PTSUNNY   46  30  53 W7        29.69R                  
HARTFORD       CLOUDY    44  31  60 NW10      29.71R                  
BRIDGEPORT     PTSUNNY   46  27  47 W12       29.73R                  
DANBURY        CLOUDY    42  27  55 VRB3      29.72S                  
GROTON         FAIR      44  36  73 W15       29.69S                  
NEW HAVEN      FAIR      47  26  44 W12G18    29.71S                  
CHESTER        FAIR      45  27  49 W9G16     29.69S                  
MERIDEN        PTSUNNY   44  26  49 W8        29.71R                  
WILLIMANTIC    PTSUNNY   44  29  55 W13G18    29.69R                  
OXFORD         PTSUNNY   43  27  53 W9        29.70S                  
$$

MEZ002-015-021-024-NHZ003-005-008-011-012-014-VTZ005-008-262100-
NORTHERN NEW ENGLAND
  
CITY           SKY/WX    TMP DP  RH WIND       PRES   REMARKS
PORTLAND ME    FAIR      46  29  51 W16G25    29.56S                  
BANGOR ME      CLOUDY    39  38  96 W7        29.50R FOG              
CONCORD NH     FAIR      43  27  53 W13       29.61R                  
MANCHESTER NH  PTSUNNY   47  29  49 W9        29.60S                  
NASHUA NH      FAIR      45  30  55 W12G18    29.63S                  
PORTSMOUTH NH  PTSUNNY   47  26  43 W14G22    29.58                   
JAFFREY NH     PTSUNNY   39  26  59 W13G24    29.63R WCI  31          
KEENE NH       CLOUDY    41  27  57 W12G23    29.65R                  
BURLINGTON VT  CLOUDY    38  32  79 S9        29.59F WCI  31          
MT. WASHINGTON SNOW      18  18 100 W43         N/A  VSB 0   WCI  -5  
$$

NYZ052-076-262100-
EASTERN NEW YORK
  
CITY           SKY/WX    TMP DP  RH WIND       PRES   REMARKS
ALBANY         CLOUDY    41  29  62 W8        29.70S                  
NEW YORK CITY  PTSUNNY   44  26  49 SW15      29.75S                  
$$
 
ANZALL-262100-
MARINE OBSERVATIONS
  
STATION/POSITION TIME  TEMP    WIND        PRES    VSBY  WAVE
                       AIR SEA DIR/SP/G                  HT/PER
                 (UTC) (F)     (DEG/KT/KT) (MB)    (MI)  (FT/S)
BOSTON BUOY      1950   46 43  260/ 14/ 17 1002.4F         5/10
BUZZARDS BAY     1900   41     240/ 19/ 21 1005.2F
NANTUCKET SOUND  1940                      1004.8F
MASS BAY-STELLWA 1904   45 42  300/ 16/ 19 1000.8F  1 7/8  7/11
ISLE OF SHOALS   1900   46     260/ 20/ 23 1001.5F
S OF BLOCK IS    2000      44                N/A           7/11
$$

......................KEY.........................
  SKY/WX - SKY CONDITION/PRESENT WEATHER
  TMP    - TEMPERATURE IN FAHRENHEIT
  DWPT   - DEWPOINT IN FAHRENHEIT
  RH     - RELATIVE HUMIDITY IN PERCENT
  WIND   - DIRECTION AND SPEED IN MPH
  PRES   - MEAN SEA LEVEL PRESSURE IN INCHES OF HG
  WCI    - WIND CHILL INDEX
  VSB    - VISIBILITY IN MILES
  HX     - HEAT INDEX
  TC     - TEMPERATURE IN CELSIUS
  VRB    - VARIABLE WIND DIRECTION
  N/A    - NOT AVAILABLE
  
      

Other recent Regional Weather Roundups

Mon Jan 27, 8:10am

Mon Jan 27, 8:00am

Mon Jan 27, 7:10am

Mon Jan 27, 7:00am

Mon Jan 27, 6:10am

Mon Jan 27, 6:00am

Mon Jan 27, 5:10am

Mon Jan 27, 5:00am

Mon Jan 27, 4:10am

Mon Jan 27, 4:01am

Mon Jan 27, 3:10am

Mon Jan 27, 3:00am

Mon Jan 27, 2:10am

Mon Jan 27, 2:00am

Mon Jan 27, 1:10am

Mon Jan 27, 1:00am

Mon Jan 27, 12:10am

Mon Jan 27, 12:00am

Sun Jan 26, 11:10pm

Sun Jan 26, 11:00pm

Sun Jan 26, 10:10pm

Sun Jan 26, 10:00pm

Sun Jan 26, 9:10pm

Sun Jan 26, 9:01pm

Sun Jan 26, 8:10pm

Sun Jan 26, 8:00pm

Sun Jan 26, 7:10pm

Sun Jan 26, 7:00pm

Sun Jan 26, 6:10pm

Sun Jan 26, 6:01pm

Sun Jan 26, 5:10pm

Sun Jan 26, 5:01pm

Sun Jan 26, 4:10pm

Sun Jan 26, 4:00pm

Sun Jan 26, 3:01pm

Sun Jan 26, 2:10pm

Sun Jan 26, 2:01pm

Sun Jan 26, 1:10pm

Sun Jan 26, 1:00pm

Sun Jan 26, 12:10pm

Sun Jan 26, 12:00pm

Sun Jan 26, 11:10am

Sun Jan 26, 11:01am

Sun Jan 26, 10:10am

Sun Jan 26, 10:01am

Sun Jan 26, 9:10am

Sun Jan 26, 9:00am

Sun Jan 26, 8:10am

Sun Jan 26, 8:00am

Sun Jan 26, 7:10am

Sun Jan 26, 7:00am

Sun Jan 26, 6:10am

Sun Jan 26, 6:00am

Sun Jan 26, 5:10am

Sun Jan 26, 5:00am

Sun Jan 26, 4:10am

Sun Jan 26, 4:01am

Sun Jan 26, 3:10am

Sun Jan 26, 3:01am

Sun Jan 26, 2:10am

Sun Jan 26, 2:00am

Sun Jan 26, 1:10am

Sun Jan 26, 1:00am

Sun Jan 26, 12:10am

Sun Jan 26, 12:00am

Sat Jan 25, 11:10pm

Sat Jan 25, 11:00pm

Sat Jan 25, 10:10pm

Sat Jan 25, 10:01pm

Sat Jan 25, 9:10pm

Sat Jan 25, 9:01pm

Sat Jan 25, 8:10pm

Sat Jan 25, 8:01pm

Sat Jan 25, 7:10pm

Sat Jan 25, 7:01pm

Sat Jan 25, 6:10pm

Sat Jan 25, 6:01pm

Sat Jan 25, 5:10pm

Sat Jan 25, 5:01pm

Sat Jan 25, 4:10pm

Sat Jan 25, 4:00pm

Sat Jan 25, 3:10pm

Sat Jan 25, 3:01pm

Sat Jan 25, 2:10pm

Sat Jan 25, 2:00pm

Sat Jan 25, 1:10pm

Sat Jan 25, 1:00pm

Sat Jan 25, 12:10pm

Sat Jan 25, 12:00pm

Sat Jan 25, 11:10am

Sat Jan 25, 11:00am

Sat Jan 25, 10:10am

Sat Jan 25, 10:00am

Sat Jan 25, 9:10am

Sat Jan 25, 9:00am

Sat Jan 25, 8:10am

Sat Jan 25, 8:01am

Sat Jan 25, 7:10am

Sat Jan 25, 7:00am

Sat Jan 25, 6:10am

Sat Jan 25, 6:00am

Sat Jan 25, 5:10am

Sat Jan 25, 5:00am

Sat Jan 25, 4:10am

Sat Jan 25, 4:00am

Sat Jan 25, 3:10am

Sat Jan 25, 3:00am

Sat Jan 25, 2:10am

Sat Jan 25, 2:01am

Sat Jan 25, 1:10am

Sat Jan 25, 1:00am

Sat Jan 25, 12:10am

Sat Jan 25, 12:00am

Fri Jan 24, 11:10pm

Fri Jan 24, 11:00pm

Fri Jan 24, 10:10pm

Fri Jan 24, 10:00pm

Fri Jan 24, 9:10pm

Fri Jan 24, 9:00pm

Fri Jan 24, 8:10pm

Fri Jan 24, 8:01pm

Fri Jan 24, 7:10pm

Fri Jan 24, 7:00pm

Fri Jan 24, 6:10pm

Fri Jan 24, 6:01pm

Fri Jan 24, 5:10pm

Fri Jan 24, 5:01pm

Fri Jan 24, 4:10pm

Fri Jan 24, 4:00pm

Fri Jan 24, 3:10pm

Fri Jan 24, 3:00pm

Fri Jan 24, 2:10pm

Fri Jan 24, 2:01pm

Fri Jan 24, 1:10pm

Fri Jan 24, 1:00pm

Fri Jan 24, 12:10pm

Fri Jan 24, 12:01pm

Fri Jan 24, 11:10am

Fri Jan 24, 11:01am

Fri Jan 24, 10:10am

Fri Jan 24, 10:00am

Fri Jan 24, 9:10am

Fri Jan 24, 9:00am

Meta data:

ID: 4a41ba08-f9e1-4fb5-af9f-f236be409aaf
Link: https://api.weather.gov/products/4a41ba08-f9e1-4fb5-af9f-f236be409aaf